Ely, NV

2:17 AM PDT on July 27, 2017 (GMT -0700)
Ely

Weather History for KELY - November, 2012

Change the Weather History Date:

Friday, November 2, 2012

  Actual Average Record
Temperature  
Mean Temperature 45 °F 39 °F  
Max Temperature 61 °F 55 °F 71 °F (1999)
Min Temperature 28 °F 24 °F 2 °F (2002)
Degree Days  
Heating Degree Days 20 26  
Month to date heating degree days 34 51  
Since 1 July heating degree days 706 979  
Cooling Degree Days 0 0  
Month to date cooling degree days 0 0  
Year to date cooling degree days 314 218  
Moisture  
Dew Point 23 °F    
Average Humidity 46    
Maximum Humidity 69    
Minimum Humidity 23    
Precipitation  
Precipitation 0.00 in 0.03 in 0.62 in (2008)
Month to date precipitation 0.00 0.06  
Year to date precipitation 10.05 8.53  
Snow  
Snow 0.00 in 0.20 in 5.30 in (1957)
Month to date snowfall 0.0 0.3  
Since 1 July snowfall 2.5 3.7  
Since 1 September snowfall 2.5 3.7  
Snow Depth 0.00 in    
Sea Level Pressure  
Sea Level Pressure 30.05 in    
Wind  
Wind Speed 5 mph (SSE)    
Max Wind Speed 12 mph    
Max Gust Speed 13 mph    
Visibility 10 miles    
Events      
T = Trace of Precipitation, MM = Missing Value Source: NWS Daily Summary

Daily Weather History Graph

Daily Weather History Graph

Search for Another Location

Airport or City:

Trip Planner

Search our weather history database for the weather conditions in past years. The results will help you decide how hot, cold, wet, or windy it might be!

Date:

Astronomy

Nov. 02, 2012 Rise Set
Actual Time 7:08 AM PDT 5:36 PM PDT
Civil Twilight 6:41 AM PDT 6:04 PM PDT
Nautical Twilight 6:09 AM PDT 6:35 PM PDT
Astronomical Twilight 5:38 AM PDT 7:07 PM PDT
Moon 8:27 PM PDT (11/2) 10:31 AM PDT (11/2)
Length of Visible Light 11h 23m
Length of Day
10h 27m
Waning Gibbous, 86% of the Moon is Illuminated
Nov 2
Waning Gibbous
Nov 6
Last Quarter
Nov 13
New
Nov 20
First Quarter
Nov 28
Full

Hourly Weather History & Observations

Time (PDT) Temp. Windchill Dew Point Humidity Pressure Visibility Wind Dir Wind Speed Gust Speed Precip Events Conditions
12:53 AM 39.0 °F 36.8 °F 25.0 °F 57% 29.95 in 10.0 mi SE 3.5 mph - N/A   Partly Cloudy
1:53 AM 35.1 °F 32.2 °F 25.0 °F 67% 29.99 in 10.0 mi WSW 3.5 mph - N/A   Mostly Cloudy
2:53 AM 33.1 °F 26.9 °F 23.0 °F 66% 30.00 in 10.0 mi SSW 6.9 mph - N/A   Scattered Clouds
3:53 AM 33.1 °F 28.7 °F 24.1 °F 70% 30.01 in 10.0 mi SE 4.6 mph - N/A   Overcast
4:53 AM 34.0 °F 28.0 °F 24.1 °F 67% 30.02 in 10.0 mi South 6.9 mph - N/A   Overcast
5:53 AM 33.1 °F 26.9 °F 24.1 °F 70% 30.05 in 10.0 mi South 6.9 mph - N/A   Overcast
6:53 AM 30.9 °F 24.3 °F 21.0 °F 67% 30.08 in 10.0 mi South 6.9 mph - N/A   Mostly Cloudy
7:53 AM 30.0 °F 22.4 °F 19.9 °F 66% 30.11 in 10.0 mi SSE 8.1 mph - N/A   Mostly Cloudy
8:53 AM 39.0 °F 34.0 °F 24.1 °F 55% 30.11 in 10.0 mi South 6.9 mph - N/A   Clear
9:53 AM 46.0 °F 43.9 °F 28.0 °F 50% 30.08 in 10.0 mi NE 4.6 mph - N/A   Clear
10:53 AM 50.0 °F - 28.0 °F 43% 30.07 in 10.0 mi Variable 3.5 mph - N/A   Clear
11:53 AM 53.1 °F - 27.0 °F 37% 30.04 in 10.0 mi NNE 4.6 mph - N/A   Clear
12:53 PM 57.0 °F - 25.0 °F 29% 30.00 in 10.0 mi NNE 3.5 mph - N/A   Clear
1:53 PM 59.0 °F - 25.0 °F 27% 29.98 in 10.0 mi NNE 3.5 mph - N/A   Clear
2:53 PM 60.1 °F - 24.1 °F 25% 29.97 in 10.0 mi Calm Calm - N/A   Clear
3:53 PM 61.0 °F - 23.0 °F 23% 29.97 in 10.0 mi Calm Calm - N/A   Clear
4:53 PM 59.0 °F - 23.0 °F 25% 29.97 in 10.0 mi Calm Calm - N/A   Clear
5:53 PM 50.0 °F - 24.1 °F 36% 30.03 in 10.0 mi Calm Calm - N/A   Clear
6:53 PM 39.9 °F 33.9 °F 23.0 °F 51% 30.11 in 10.0 mi SSE 9.2 mph - N/A   Clear
7:53 PM 37.9 °F 32.7 °F 21.9 °F 53% 30.15 in 10.0 mi SSE 6.9 mph - N/A   Clear
8:53 PM 34.0 °F 26.6 °F 19.9 °F 56% 30.13 in 10.0 mi South 9.2 mph - N/A   Clear
9:53 PM 33.1 °F 26.9 °F 21.0 °F 61% 30.13 in 10.0 mi South 6.9 mph - N/A   Clear
10:53 PM 30.9 °F 22.2 °F 19.0 °F 61% 30.12 in 10.0 mi SSE 10.4 mph - N/A   Clear
11:53 PM 28.9 °F 21.1 °F 19.0 °F 67% 30.13 in 10.0 mi South 8.1 mph - N/A   Clear